Location: Peterborough
(44.3091°N, 78.3197°W)
Time: 04:05:36
(UTC-04:00)

S-56A Canister/Altair - Pass Details

Date: 24 March 2023
Orbit: 639 x 2492 km, 38.9° (Epoch: 08 June)

Event Time Altitude Azimuth Distance (km) Brightness Sun altitude
Rises 18:20:44 0° 198° (SSW) 4,670 11.9 11.6°
Reaches altitude 10° 18:24:11 10° 186° (S) 3,964 11.4 11.0°
Maximum altitude 18:32:44 27° 134° (SE) 3,374 10.5 9.5°
Drops below altitude 10° 18:43:20 10° 85° (E) 5,018 11.1 7.6°
Sets 18:48:21 0° 75° (ENE) 6,140 11.5 6.7°
